Hourly Weather Aliganj

Today, 5 December, Saturday

Time Temperature Precipitation Wind Pressure Humidity
00:00 +20°C° 0 mm 1 mps 744 mmHg 33%
01:00 +20°C° 0 mm 1 mps 744 mmHg 34%
02:00 +17°C° 0 mm 0 mps 744 mmHg 35%
03:00 +19°C° 0 mm 1 mps 744 mmHg 36%
04:00 +19°C° 0 mm 1 mps 744 mmHg 36%
05:00 +18°C° 0 mm 1 mps 744 mmHg 38%
06:00 +19°C° 0 mm 1 mps 745 mmHg 37%
07:00 +20°C° 0 mm 1 mps 746 mmHg 36%
08:00 +21°C° 0 mm 1 mps 747 mmHg 35%
09:00 +23°C° 0 mm 2 mps 746 mmHg 32%
10:00 +25°C° 0 mm 2 mps 746 mmHg 28%
11:00 +28°C° 0 mm 2 mps 746 mmHg 25%
12:00 +28°C° 0 mm 2 mps 746 mmHg 24%
13:00 +29°C° 0 mm 1 mps 745 mmHg 22%
14:00 +30°C° 0 mm 1 mps 744 mmHg 21%
15:00 +28°C° 0 mm 1 mps 744 mmHg 24%
16:00 +27°C° 0 mm 1 mps 744 mmHg 26%
17:00 +25°C° 0 mm 1 mps 744 mmHg 29%
18:00 +24°C° 0 mm 1 mps 744 mmHg 30%
19:00 +24°C° 0 mm 1 mps 745 mmHg 32%
20:00 +23°C° 0 mm 1 mps 745 mmHg 33%
21:00 +22°C° 0 mm 1 mps 745 mmHg 34%
22:00 +22°C° 0 mm 1 mps 745 mmHg 36%
23:00 +21°C° 0 mm 1 mps 745 mmHg 37%

Tomorrow, 6 December, Sunday

Time Temperature Precipitation Wind Pressure Humidity
00:00 +21°C° 0 mm 1 mps 745 mmHg 38%
01:00 +20°C° 0 mm 1 mps 745 mmHg 40%
02:00 +20°C° 0 mm 1 mps 745 mmHg 41%
03:00 +18°C° 0 mm 0 mps 745 mmHg 42%
04:00 +17°C° 0 mm 0 mps 745 mmHg 43%
05:00 +17°C° 0 mm 0 mps 746 mmHg 44%
06:00 +18°C° 0 mm 0 mps 746 mmHg 43%
07:00 +21°C° 0 mm 1 mps 747 mmHg 41%
08:00 +22°C° 0 mm 1 mps 748 mmHg 39%
09:00 +24°C° 0 mm 1 mps 748 mmHg 35%
10:00 +26°C° 0 mm 1 mps 748 mmHg 31%
11:00 +28°C° 0 mm 2 mps 748 mmHg 27%
12:00 +29°C° 0 mm 2 mps 747 mmHg 25%
13:00 +30°C° 0 mm 2 mps 746 mmHg 23%
14:00 +31°C° 0 mm 2 mps 746 mmHg 22%
15:00 +29°C° 0 mm 2 mps 745 mmHg 24%
16:00 +28°C° 0 mm 2 mps 745 mmHg 27%
17:00 +26°C° 0 mm 1 mps 745 mmHg 29%
18:00 +25°C° 0 mm 2 mps 745 mmHg 31%
19:00 +24°C° 0 mm 2 mps 746 mmHg 33%
20:00 +24°C° 0 mm 2 mps 746 mmHg 35%
21:00 +23°C° 0 mm 2 mps 746 mmHg 36%
22:00 +21°C° 0 mm 2 mps 746 mmHg 37%
23:00 +20°C° 0 mm 3 mps 746 mmHg 38%

Day after tomorrow, 7 December, Monday

Time Temperature Precipitation Wind Pressure Humidity
00:00 +20°C° 0 mm 3 mps 746 mmHg 38%
01:00 +19°C° 0 mm 3 mps 746 mmHg 38%
02:00 +19°C° 0 mm 3 mps 746 mmHg 38%
03:00 +18°C° 0 mm 3 mps 746 mmHg 40%
04:00 +18°C° 0 mm 2 mps 746 mmHg 43%
05:00 +17°C° 0 mm 2 mps 746 mmHg 45%
06:00 +18°C° 0 mm 2 mps 746 mmHg 44%
07:00 +19°C° 0 mm 2 mps 747 mmHg 43%
08:00 +20°C° 0 mm 2 mps 748 mmHg 42%
09:00 +22°C° 0 mm 3 mps 748 mmHg 37%
10:00 +25°C° 0 mm 3 mps 748 mmHg 32%
11:00 +28°C° 0 mm 3 mps 748 mmHg 26%
12:00 +28°C° 0 mm 4 mps 747 mmHg 24%
13:00 +29°C° 0 mm 4 mps 747 mmHg 22%
14:00 +30°C° 0 mm 4 mps 746 mmHg 19%
15:00 +28°C° 0 mm 3 mps 746 mmHg 22%
16:00 +27°C° 0 mm 3 mps 746 mmHg 24%
17:00 +25°C° 0 mm 2 mps 746 mmHg 27%
18:00 +24°C° 0 mm 2 mps 746 mmHg 27%
19:00 +23°C° 0 mm 2 mps 747 mmHg 28%
20:00 +23°C° 0 mm 2 mps 747 mmHg 28%
21:00 +21°C° 0 mm 2 mps 747 mmHg 29%
22:00 +20°C° 0 mm 2 mps 747 mmHg 30%
23:00 +20°C° 0 mm 2 mps 747 mmHg 31%

8 December, Tuesday

Time Temperature Precipitation Wind Pressure Humidity
00:00 +19°C° 0 mm 2 mps 747 mmHg 32%
01:00 +19°C° 0 mm 2 mps 747 mmHg 33%
02:00 +18°C° 0 mm 2 mps 747 mmHg 33%
03:00 +18°C° 0 mm 2 mps 747 mmHg 34%
04:00 +18°C° 0 mm 2 mps 747 mmHg 35%
05:00 +18°C° 0 mm 1 mps 747 mmHg 35%
06:00 +19°C° 0 mm 1 mps 748 mmHg 35%
07:00 +20°C° 0 mm 1 mps 748 mmHg 34%
08:00 +21°C° 0 mm 1 mps 749 mmHg 33%
09:00 +23°C° 0 mm 2 mps 749 mmHg 30%
10:00 +25°C° 0 mm 2 mps 748 mmHg 26%
11:00 +27°C° 0 mm 3 mps 748 mmHg 22%
12:00 +28°C° 0 mm 3 mps 748 mmHg 21%
13:00 +29°C° 0 mm 3 mps 747 mmHg 20%
14:00 +30°C° 0 mm 4 mps 746 mmHg 19%
15:00 +29°C° 0 mm 3 mps 746 mmHg 21%
16:00 +27°C° 0 mm 3 mps 746 mmHg 24%
17:00 +25°C° 0 mm 2 mps 746 mmHg 27%
18:00 +24°C° 0 mm 2 mps 746 mmHg 28%
19:00 +23°C° 0 mm 2 mps 746 mmHg 30%
20:00 +23°C° 0 mm 2 mps 747 mmHg 31%
21:00 +21°C° 0 mm 2 mps 746 mmHg 32%
22:00 +21°C° 0 mm 2 mps 746 mmHg 32%
23:00 +20°C° 0 mm 2 mps 746 mmHg 33%

9 December, Wednesday

Time Temperature Precipitation Wind Pressure Humidity
00:00 +20°C° 0 mm 2 mps 746 mmHg 33%
01:00 +20°C° 0 mm 2 mps 746 mmHg 34%
02:00 +19°C° 0 mm 2 mps 745 mmHg 34%
03:00 +19°C° 0 mm 2 mps 745 mmHg 35%
04:00 +18°C° 0 mm 2 mps 745 mmHg 36%
05:00 +19°C° 0 mm 1 mps 745 mmHg 37%
06:00 +19°C° 0 mm 2 mps 746 mmHg 36%
07:00 +19°C° 0 mm 2 mps 746 mmHg 36%
08:00 +20°C° 0 mm 2 mps 747 mmHg 35%
09:00 +24°C° 0 mm 2 mps 747 mmHg 31%
10:00 +26°C° 0 mm 3 mps 747 mmHg 26%
11:00 +29°C° 0 mm 3 mps 747 mmHg 22%
12:00 +30°C° 0 mm 3 mps 746 mmHg 21%
13:00 +30°C° 0 mm 4 mps 745 mmHg 20%
14:00 +32°C° 0 mm 4 mps 744 mmHg 19%
15:00 +30°C° 0 mm 3 mps 744 mmHg 22%
16:00 +28°C° 0 mm 3 mps 744 mmHg 25%
17:00 +26°C° 0 mm 2 mps 744 mmHg 28%
18:00 +25°C° 0 mm 2 mps 744 mmHg 29%
19:00 +24°C° 0 mm 2 mps 744 mmHg 31%
20:00 +23°C° 0 mm 2 mps 744 mmHg 33%
21:00 +23°C° 0 mm 2 mps 744 mmHg 33%
22:00 +23°C° 0 mm 2 mps 744 mmHg 34%
23:00 +22°C° 0 mm 1 mps 744 mmHg 35%

10 December, Thursday

Time Temperature Precipitation Wind Pressure Humidity
00:00 +22°C° 0 mm 1 mps 744 mmHg 35%
01:00 +21°C° 0 mm 1 mps 744 mmHg 35%
02:00 +20°C° 0 mm 2 mps 744 mmHg 35%
03:00 +20°C° 0 mm 1 mps 744 mmHg 36%
04:00 +20°C° 0 mm 1 mps 744 mmHg 37%
05:00 +20°C° 0 mm 1 mps 744 mmHg 38%
06:00 +20°C° 0 mm 1 mps 745 mmHg 37%
07:00 +21°C° 0 mm 1 mps 746 mmHg 36%
08:00 +22°C° 0 mm 1 mps 746 mmHg 36%
09:00 +25°C° 0 mm 1 mps 746 mmHg 32%
10:00 +27°C° 0 mm 2 mps 746 mmHg 28%
11:00 +29°C° 0 mm 2 mps 746 mmHg 24%
12:00 +30°C° 0 mm 2 mps 746 mmHg 23%
13:00 +31°C° 0 mm 2 mps 745 mmHg 22%
14:00 +31°C° 0 mm 2 mps 744 mmHg 21%
15:00 +30°C° 0 mm 2 mps 744 mmHg 24%
16:00 +28°C° 0 mm 2 mps 744 mmHg 27%
17:00 +26°C° 0 mm 1 mps 744 mmHg 30%
18:00 +25°C° 0 mm 1 mps 744 mmHg 31%
19:00 +25°C° 0 mm 1 mps 744 mmHg 32%
20:00 +24°C° 0 mm 1 mps 745 mmHg 34%
21:00 +23°C° 0 mm 1 mps 745 mmHg 35%
22:00 +23°C° 0 mm 2 mps 745 mmHg 35%
23:00 +21°C° 0 mm 2 mps 745 mmHg 36%
Show more

We Need Your Consent

Meteoprog and our Service Providers may store and access personal data such as cookies, device identifiers or other similar technologies on your device and process such data to personalise content and ads, as well as provide social media features and to analyse the traffic.

  • Store and/or access information on your device

    Cookies, device identifiers or other information can be stored or accessed on your device for the purposes indicated above.

  • Personalised ads and content, ad and content measurement, audience insights, and products development

    Ads and content can be personalised based on a profile. More data can be added to better personalise ads and content. Ad and content performance can be measured. Insights about the audience who saw the ads and content can be derived. Such data can be used to develop or improve user’s experience, systems and software.

By clicking ‘I Agree’ you will allow the use of indicated cookies, device identifiers, web beacons or other similar technologies. Your settings can be changed in the browser on your device.

For certain purposes, legitimate interests may be relied on, rather than consent. You can read more about this in our Privacy and Cookie Policy.